This demonstration page uses our WeatherBlox Daily Observations layout. Learn more.

Left ArrowRight Arrow

Hourly Observations for February 25, 2015

Temp ( °F °C ) Dew Point ( °F °C ) Humidity (%) Winds ( mph kmh ) Pressure ( in mb ) Visibility ( mi km ) Precip ( " mm )
12:53 am 00:53 Clear 42 5.6 33 0.6 71 71 Calm 30.32 1027 10 16 0.00 0.00
1:53 am 01:53 Clear 41 5 32 0 70 70 Calm 30.31 1027 10 16 0.00 0.00
2:53 am 02:53 Clear 40 4.4 32 0 73 73 Calm 30.30 1026 10 16 0.00 0.00
3:53 am 03:53 Clear 38 3.3 32 0 79 79 undefined N/A 30.29 1026 10 16 0.00 0.00
4:53 am 04:53 Clear 37 2.8 31 -0.6 79 79 NE 3 6 30.28 1026 10 16 0.00 0.00
5:53 am 05:53 Clear 35 1.7 31 -0.6 85 85 Calm 30.28 1026 10 16 0.00 0.00
6:53 am 06:53 Sunny 36 2.2 31 -0.6 82 82 Calm 30.28 1025 10 16 0.00 0.00
7:53 am 07:53 Sunny 40 4.4 33 0.6 77 77 Calm 30.28 1026 10 16 0.00 0.00
8:53 am 08:53 Sunny 46 7.8 35 1.7 66 66 Calm 30.29 1026 10 16 0.00 0.00
9:53 am 09:53 Sunny 52 11.1 36 2.2 55 55 Calm 30.27 1025 10 16 0.00 0.00
10:53 am 10:53 Sunny 58 14.4 38 3.3 48 48 Calm 30.26 1025 10 16 0.00 0.00
11:53 am 11:53 Sunny 65 18.3 40 4.4 40 40 SSE 5 7 30.21 1023 10 16 0.00 0.00
12:21 pm 12:21 Hazy 67 19.4 39 3.9 36 36 Calm 30.15 1021 2 3 0.00 0.00
12:30 pm 12:30 Sunny 68 20 39 4 35 35 SSW 3 6 30.15 1021 10 16 0.00 0.00
12:53 pm 12:53 Sunny 70 21.1 38 3.3 31 31 Calm 30.15 1021 10 16 0.00 0.00
1:53 pm 13:53 Sunny 73 22.8 27 -2.8 18 18 NNW 10 17 30.12 1020 10 16 0.00 0.00
2:53 pm 14:53 Sunny 76 24.4 31 -0.6 19 19 NNE 13 20 30.10 1019 10 16 0.00 0.00
3:53 pm 15:53 Sunny 76 24.4 31 -0.6 19 19 N 9 15 30.09 1019 10 16 0.00 0.00
4:53 pm 16:53 Sunny 73 22.8 38 3.3 28 28 N 3 6 30.06 1018 10 16 0.00 0.00
5:53 pm 17:53 Sunny 69 20.6 33 0.6 26 26 N 5 7 30.06 1018 10 16 0.00 0.00
6:53 pm 18:53 Clear 61 16.1 34 1.1 36 36 WNW 5 7 30.08 1019 10 16 0.00 0.00
7:53 pm 19:53 Clear 59 15 37 2.8 44 44 N 8 13 30.09 1019 10 16 0.00 0.00
8:53 pm 20:53 Clear 58 14.4 36 2.2 44 44 NNW 5 7 30.08 1019 10 16 0.00 0.00
9:53 pm 21:53 Clear 61 16.1 33 0.6 35 35 NW 6 9 30.09 1019 10 16 0.00 0.00
10:53 pm 22:53 Clear 54 12.2 36 2.2 51 51 ENE 8 13 30.09 1019 10 16 0.00 0.00
11:53 pm 23:53 Clear 58 14.4 33 0.6 39 39 N 7 11 30.09 1019 10 16 0.00 0.00

Powered by AerisWeather